Find Starlink 6380

NORAD ID: 57344 Int'l Des: 2023-099 Owner: SPXS Country: US Constellation: starlink operational
LEOCIRCULAR

現在のビュー

3D地球を読み込み中...

About Starlink 6380

Starlink 6380 (NORAD 57344) is a starlink constellation satellite (v1.5) launched Jul 16, 2023 by SPXS of US. It operates in LEO, CIRCULAR orbit with a mass of 305.00 kg.

Starlink 6380について

説明を読み込み中...

次回通過

Passes for default location (London). Set your location on the main map for personalized predictions.

高度履歴

Loading altitude history...

軌道要素

1 57344U 23099S 26169.34625227 .00001289 00000-0 56381-4 0 9998
2 57344 43.0025 43.6718 0001209 264.2715 95.7999 15.27571219161474
Epoch: Jun 18, 2026 • Age: 12 hours

現在のステータス

高度 487.4 km
速度 7.62 km/s
衛星直下点 -20.98°S, 34.68°E
打ち上げ日 Jul 16, 2023
運用期間 2.9 years
タイプ internet

技術仕様

分類 Payload
質量 305.00 kg
乾燥質量 290.00 kg
総質量 305.00 kg
長さ 0.20 m
直径 2.80 m
スパン 9.00 m
形状 Box + pan
製造者 SPXS
バスタイプ Starlink
フェーズステータス In Orbit
所有者/国 SPXS/US

Most Searched